TimePDT,TemperatureF,Dew PointF,Humidity,Sea Level PressureIn,VisibilityMPH,Wind Direction,Wind SpeedMPH,Gust SpeedMPH,PrecipitationIn,Events,Conditions,WindDirDegrees,DateUTC
12:53 AM,51.8,48.2,88,30.04,10.0,SW,11.5,-,N/A,,Overcast,230,2012-10-09 07:53:00
1:53 AM,52.0,48.0,86,30.06,10.0,SW,11.5,-,N/A,,Overcast,230,2012-10-09 08:53:00
2:53 AM,51.1,48.0,89,30.06,10.0,SW,8.1,-,N/A,,Overcast,230,2012-10-09 09:53:00
3:53 AM,51.1,48.0,89,30.06,10.0,SSW,9.2,-,N/A,,Overcast,210,2012-10-09 10:53:00
4:53 AM,51.1,46.9,86,30.06,10.0,SW,8.1,-,N/A,,Overcast,220,2012-10-09 11:53:00
5:53 AM,51.1,46.9,86,30.07,10.0,SSW,6.9,-,N/A,,Overcast,200,2012-10-09 12:53:00
6:53 AM,51.1,46.9,86,30.09,10.0,SSW,3.5,-,N/A,,Overcast,200,2012-10-09 13:53:00
7:53 AM,51.1,46.9,86,30.09,10.0,SSW,3.5,-,N/A,,Overcast,200,2012-10-09 14:53:00
8:53 AM,51.1,46.9,86,30.11,10.0,SSW,4.6,-,N/A,,Overcast,200,2012-10-09 15:53:00
9:53 AM,52.0,46.9,83,30.12,10.0,SSW,5.8,-,N/A,,Overcast,200,2012-10-09 16:53:00
10:53 AM,52.0,46.0,80,30.12,10.0,West,4.6,-,N/A,,Overcast,260,2012-10-09 17:53:00
11:37 AM,53.6,46.4,77,30.11,10.0,SW,3.5,-,N/A,,Overcast,220,2012-10-09 18:37:00
11:53 AM,53.1,46.0,77,30.11,10.0,Calm,Calm,-,N/A,,Overcast,0,2012-10-09 18:53:00
12:38 PM,55.4,46.4,72,30.09,10.0,Calm,Calm,-,N/A,,Scattered Clouds,0,2012-10-09 19:38:00
12:53 PM,57.9,46.0,65,30.09,9.0,Calm,Calm,-,N/A,,Clear,0,2012-10-09 19:53:00
1:53 PM,61.0,46.0,58,30.07,10.0,Calm,Calm,-,N/A,,Clear,0,2012-10-09 20:53:00
2:53 PM,63.0,45.0,52,30.06,10.0,Variable,4.6,-,N/A,,Clear,0,2012-10-09 21:53:00
3:53 PM,66.0,45.0,47,30.04,10.0,Calm,Calm,-,N/A,,Clear,0,2012-10-09 22:53:00
4:53 PM,64.9,45.0,48,30.03,10.0,Calm,Calm,-,N/A,,Clear,0,2012-10-09 23:53:00
5:53 PM,61.0,46.9,60,30.02,10.0,East,5.8,-,N/A,,Clear,100,2012-10-10 00:53:00
6:53 PM,57.0,46.9,69,30.03,10.0,Calm,Calm,-,N/A,,Clear,0,2012-10-10 01:53:00
7:53 PM,52.0,46.0,80,30.03,10.0,Calm,Calm,-,N/A,,Clear,0,2012-10-10 02:53:00
8:53 PM,46.9,44.1,90,30.03,10.0,Calm,Calm,-,N/A,,Clear,0,2012-10-10 03:53:00
9:53 PM,43.0,42.1,97,30.03,10.0,Calm,Calm,-,N/A,,Clear,0,2012-10-10 04:53:00
10:53 PM,42.1,41.0,96,30.03,9.0,Calm,Calm,-,N/A,,Clear,0,2012-10-10 05:53:00
11:53 PM,42.1,41.0,96,30.04,8.0,Calm,Calm,-,N/A,,Clear,0,2012-10-10 06:53:00